N1ICS-1 Weather Reports


time (UTC)temp
C
wind
direction
speed
KPH
gust
KPH
rain 1hr
cm
rain 24hr
cm
rain mn
cm
humidity
%
barometer
mb
20260903005502 26 235 6.4 6.4 0.00 0.00 0.00 96 1016.6
20260903005002 27 230 6.4 9.7 0.00 0.00 0.00 94 1016.4
20260903004001 27 218 6.4 12.9 0.00 0.00 0.00 94 1016.3
20260903003502 26 218 6.4 9.7 0.00 0.00 0.00 95 1016.2
20260903002501 26 239 4.8 9.7 0.00 0.00 0.00 97 1016.5
20260903002002 26 243 4.8 6.4 0.00 0.00 0.00 96 1016.4
20260903001501 26 259 3.2 4.8 0.00 0.00 0.00 97 1016.3
20260903000502 27 243 3.2 6.4 0.00 0.00 0.00 96 1016.4
20260902235002 28 259 3.2 4.8 0.00 0.00 0.00 94 1016.3
20260902234502 28 248 3.2 4.8 0.00 0.00 0.00 93 1016.4
20260902232502 30 215 4.8 4.8 0.00 0.00 0.00 90 1016.5
20260902232001 30 224 3.2 4.8 0.00 0.00 0.00 89 1016.5
20260902230502 31 233 3.2 4.8 0.00 0.00 0.00 86 1016.3
20260902225501 31 214 6.4 9.7 0.00 0.00 0.00 84 1016.5
20260902225002 31 212 6.4 9.7 0.00 0.00 0.00 83 1016.4
20260902224002 31 230 6.4 12.9 0.00 0.00 0.00 82 1016.5
20260902223502 31 221 6.4 12.9 0.00 0.00 0.00 81 1016.3
20260902223002 31 222 8.0 9.7 0.00 0.00 0.00 81 1016.5
20260902222002 32 220 8.0 14.5 0.00 0.00 0.00 80 1016.5
20260902221502 32 221 6.4 11.3 0.00 0.00 0.00 80 1016.4
20260902221002 32 213 4.8 12.9 0.00 0.00 0.00 79 1016.5
20260902220501 32 222 8.0 14.5 0.00 0.00 0.00 78 1016.5
20260902220002 32 218 12.9 16.1 0.00 0.00 0.00 77 1016.4
20260902215502 32 234 9.7 12.9 0.00 0.00 0.00 78 1016.5
20260902215001 32 235 16.1 16.1 0.00 0.00 0.00 76 1016.5
20260902213501 32 210 8.0 11.3 0.00 0.00 0.00 78 1016.5
20260902213002 32 221 9.7 17.7 0.00 0.00 0.00 76 1016.6
20260902212502 32 210 6.4 11.3 0.00 0.00 0.00 77 1016.5
20260902211502 32 221 8.0 12.9 0.00 0.00 0.00 77 1016.5
20260902211002 33 238 8.0 14.5 0.00 0.00 0.00 76 1016.5
20260902210501 33 226 12.9 12.9 0.00 0.00 0.00 74 1016.5
20260902210002 32 213 8.0 11.3 0.00 0.00 0.00 76 1016.5
20260902205502 32 236 6.4 9.7 0.00 0.00 0.00 78 1016.6
20260902204501 32 226 8.0 12.9 0.00 0.00 0.00 75 1016.7
20260902203002 32 236 16.1 17.7 0.00 0.00 0.00 74 1017.1
20260902202502 33 223 9.7 14.5 0.00 0.00 0.00 76 1017.0
20260902201502 32 225 8.0 17.7 0.00 0.00 0.00 76 1016.9
20260902201002 32 224 12.9 17.7 0.00 0.00 0.00 72 1016.9
20260902200002 32 214 11.3 17.7 0.00 0.00 0.00 73 1017.1
20260902195501 32 217 9.7 16.1 0.00 0.00 0.00 72 1017.2
20260902195002 32 210 11.3 19.3 0.00 0.00 0.00 72 1017.3
20260902194501 32 225 14.5 19.3 0.00 0.00 0.00 74 1017.2
20260902193501 33 211 9.7 17.7 0.00 0.00 0.00 71 1017.4
20260902192003 33 220 8.0 14.5 0.00 0.00 0.00 76 1017.5
20260902190502 32 240 17.7 24.1 0.00 0.00 0.00 73 1017.8
20260902190002 32 209 8.0 14.5 0.00 0.00 0.00 75 1017.7
20260902185501 32 229 12.9 16.1 0.00 0.00 0.00 75 1017.8
20260902184502 32 231 9.7 20.9 0.00 0.00 0.00 75 1017.8
20260902183502 32 223 9.7 20.9 0.00 0.00 0.00 78 1017.9
20260902183002 32 220 12.9 17.7 0.00 0.00 0.00 74 1018.1
20260902182002 32 242 9.7 19.3 0.00 0.00 0.00 75 1018.2
20260902181502 32 211 11.3 16.1 0.00 0.00 0.00 77 1018.0
20260902181002 32 219 14.5 19.3 0.00 0.00 0.00 76 1018.1
20260902180005 32 238 11.3 19.3 0.00 0.00 0.00 76 1018.3
20260902175502 32 223 11.3 22.5 0.00 0.00 0.00 77 1018.3
20260902175002 32 216 6.4 17.7 0.00 0.00 0.00 77 1018.1
20260902174502 32 231 12.9 16.1 0.00 0.00 0.00 75 1018.2
20260902173501 32 243 6.4 12.9 0.00 0.00 0.00 78 1018.3
20260902172501 32 215 16.1 19.3 0.00 0.00 0.00 78 1018.5
20260902171502 31 218 8.0 17.7 0.00 0.00 0.00 81 1018.5
20260902170501 31 230 6.4 16.1 0.00 0.00 0.00 81 1018.6
20260902170002 31 227 8.0 16.1 0.00 0.00 0.00 79 1018.5
20260902165502 31 211 9.7 17.7 0.00 0.00 0.00 80 1018.8
20260902164501 31 257 9.7 16.1 0.00 0.00 0.00 80 1018.8
20260902164001 31 249 17.7 17.7 0.00 0.00 0.00 79 1018.8
20260902162501 31 218 6.4 14.5 0.00 0.00 0.00 82 1019.1
20260902162002 31 248 12.9 17.7 0.00 0.00 0.00 80 1019.2
20260902161502 30 250 6.4 19.3 0.00 0.00 0.00 83 1019.1
20260902161001 30 258 16.1 20.9 0.00 0.00 0.00 79 1019.1
20260902160502 30 262 14.5 20.9 0.00 0.00 0.00 80 1019.1
20260902160002 31 253 11.3 14.5 0.00 0.00 0.00 83 1019.2
20260902155501 30 254 14.5 17.7 0.00 0.00 0.00 82 1019.0
20260902155002 30 259 14.5 20.9 0.00 0.00 0.00 80 1019.0
20260902154502 30 263 14.5 17.7 0.00 0.00 0.00 81 1019.0
20260902154001 30 235 16.1 20.9 0.00 0.00 0.00 82 1019.0
20260902153502 30 262 8.0 14.5 0.00 0.00 0.00 82 1018.8
20260902153001 30 264 16.1 20.9 0.00 0.00 0.00 81 1018.9
20260902152502 30 251 14.5 20.9 0.00 0.00 0.00 83 1019.1
20260902151502 29 258 17.7 19.3 0.00 0.00 0.00 82 1018.8
20260902151002 29 252 11.3 19.3 0.00 0.00 0.00 84 1018.8
20260902150501 29 240 6.4 17.7 0.00 0.00 0.00 84 1018.7
20260902150002 29 245 11.3 17.7 0.00 0.00 0.00 84 1019.0
20260902145502 29 256 11.3 19.3 0.00 0.00 0.00 82 1018.9
20260902144502 28 242 6.4 17.7 0.00 0.00 0.00 84 1018.8
20260902144001 29 242 8.0 12.9 0.00 0.00 0.00 86 1018.8
20260902143502 28 255 8.0 14.5 0.00 0.00 0.00 84 1018.9
20260902142002 28 245 11.3 16.1 0.00 0.00 0.00 85 1018.7
20260902141002 28 255 8.0 11.3 0.00 0.00 0.00 87 1018.8
20260902140501 27 264 9.7 20.9 0.00 0.00 0.00 86 1019.0
20260902135502 27 257 9.7 16.1 0.00 0.00 0.00 89 1018.8
20260902135002 27 266 8.0 17.7 0.00 0.00 0.00 90 1018.8
20260902134001 26 251 6.4 17.7 0.00 0.00 0.00 91 1018.8
20260902132002 26 257 12.9 16.1 0.00 0.00 0.00 93 1018.9
20260902131502 26 227 8.0 14.5 0.00 0.00 0.00 93 1018.8
20260902131002 25 231 4.8 11.3 0.00 0.00 0.00 94 1018.8
20260902130501 25 249 11.3 12.9 0.00 0.00 0.00 94 1018.6
20260902130002 25 249 8.0 14.5 0.00 0.00 0.00 96 1018.8
20260902125501 24 253 9.7 14.5 0.00 0.00 0.00 96 1018.7
20260902125002 24 236 4.8 12.9 0.00 0.00 0.00 96 1019.0
20260902123502 23 236 9.7 12.9 0.00 0.00 0.00 97 1018.9
20260902121502 23 236 4.8 6.4 0.00 0.00 0.00 99 1019.0
20260902121001 23 240 3.2 6.4 0.00 0.00 0.00 99 1019.0
20260902120002 22 235 3.2 6.4 0.00 0.00 0.00 99 1018.8
20260902114501 21 259 3.2 4.8 0.00 0.00 0.00 99 1018.8
20260902113001 21 269 3.2 4.8 0.00 0.00 0.00 99 1018.8
20260902112001 21 264 3.2 4.8 0.00 0.00 0.00 99 1018.6
20260902111502 21 257 3.2 4.8 0.00 0.00 0.00 99 1018.6
20260902111002 21 261 4.8 4.8 0.00 0.00 0.00 99 1018.4
20260902110502 21 275 3.2 4.8 0.00 0.00 0.00 99 1018.5
20260902105501 21 253 4.8 4.8 0.00 0.00 0.00 99 1018.5
20260902105002 21 279 3.2 4.8 0.00 0.00 0.00 99 1018.4
20260902104002 21 244 3.2 4.8 0.00 0.00 0.00 99 1018.3
20260902103501 21 255 3.2 4.8 0.00 0.00 0.00 99 1018.6
20260902102001 21 263 3.2 4.8 0.00 0.00 0.00 99 1018.3
20260902100502 21 257 3.2 4.8 0.00 0.00 0.00 99 1018.1
20260902100003 21 223 3.2 3.2 0.00 0.00 0.00 99 1018.1
20260902095501 21 226 3.2 4.8 0.00 0.00 0.00 99 1018.2
20260902095002 22 253 3.2 4.8 0.00 0.00 0.00 99 1018.2
20260902094502 22 263 3.2 4.8 0.00 0.00 0.00 99 1018.0
20260902093502 22 211 3.2 4.8 0.00 0.00 0.00 99 1018.1
20260902093002 22 203 3.2 3.2 0.00 0.00 0.00 99 1017.8
20260902092501 22 248 3.2 6.4 0.00 0.00 0.00 99 1018.0
20260902092002 22 320 0.0 3.2 0.00 0.00 0.00 99 1018.0
20260902090501 22 232 3.2 4.8 0.00 0.00 0.00 99 1018.0
20260902090002 22 281 3.2 4.8 0.00 0.00 0.00 99 1018.1
20260902085501 22 272 3.2 4.8 0.00 0.00 0.00 99 1018.1
20260902085001 22 271 4.8 4.8 0.00 0.00 0.00 99 1018.0
20260902084501 22 261 3.2 4.8 0.00 0.00 0.00 99 1018.0
20260902084002 22 249 3.2 4.8 0.00 0.00 0.00 99 1018.0
20260902083501 22 279 3.2 4.8 0.00 0.00 0.00 99 1017.7
20260902083001 22 267 3.2 4.8 0.00 0.00 0.00 99 1017.9
20260902082002 22 257 3.2 6.4 0.00 0.00 0.00 99 1018.1
20260902081501 22 260 4.8 6.4 0.00 0.00 0.00 99 1018.0
20260902081002 22 263 3.2 4.8 0.00 0.00 0.00 99 1017.9
20260902075001 22 266 4.8 6.4 0.00 0.00 0.00 99 1017.7
20260902073502 22 269 3.2 3.2 0.00 0.00 0.00 99 1017.8
20260902073001 22 257 3.2 4.8 0.00 0.00 0.00 99 1017.9
20260902071501 22 232 3.2 4.8 0.00 0.00 0.00 99 1017.8
20260902070002 22 251 3.2 4.8 0.00 0.00 0.00 99 1017.8
20260902065502 22 251 3.2 6.4 0.00 0.00 0.00 99 1017.7
20260902065001 23 230 3.2 8.0 0.00 0.00 0.00 99 1017.6
20260902064502 23 249 0.0 6.4 0.00 0.00 0.00 99 1018.0
20260902064002 22 243 3.2 6.4 0.00 0.00 0.00 99 1017.9
20260902063502 22 260 3.2 4.8 0.00 0.00 0.00 99 1017.8
20260902061002 23 255 4.8 6.4 0.00 0.00 0.00 99 1018.0
20260902060502 23 242 4.8 4.8 0.00 0.00 0.00 99 1017.9
20260902060003 23 233 3.2 4.8 0.00 0.00 0.00 99 1018.2
20260902054502 23 266 3.2 6.4 0.00 0.00 0.00 99 1017.9
20260902053502 23 262 3.2 4.8 0.00 0.00 0.00 99 1018.0
20260902053001 23 258 3.2 4.8 0.00 0.00 0.00 99 1017.7
20260902052002 23 263 3.2 4.8 0.00 0.00 0.00 99 1017.9
20260902051502 23 269 3.2 4.8 0.00 0.00 0.00 99 1018.0
20260902051002 23 258 3.2 4.8 0.00 0.00 0.00 99 1017.8
20260902050502 23 259 3.2 6.4 0.00 0.00 0.00 99 1017.8
20260902044501 23 227 6.4 9.7 0.00 0.00 0.00 99 1017.8
20260902044002 23 235 4.8 6.4 0.00 0.00 0.00 99 1017.8
20260902043001 23 229 3.2 4.8 0.00 0.00 0.00 99 1017.8
20260902042502 23 218 3.2 6.4 0.00 0.00 0.00 99 1017.7
20260902041502 23 237 4.8 6.4 0.00 0.00 0.00 99 1017.8
20260902041002 24 255 3.2 6.4 0.00 0.00 0.00 98 1017.9
20260902040501 24 241 4.8 6.4 0.00 0.00 0.00 97 1017.7
20260902040002 24 219 8.0 12.9 0.00 0.00 0.00 98 1017.8
20260902035002 24 241 6.4 6.4 0.00 0.00 0.00 98 1017.6
20260902034501 25 207 4.8 8.0 0.00 0.00 0.00 97 1017.9
20260902033502 25 225 4.8 9.7 0.00 0.00 0.00 97 1017.7
20260902033001 25 213 4.8 9.7 0.00 0.00 0.00 97 1017.6
20260902032502 25 229 6.4 8.0 0.00 0.00 0.00 97 1017.6
20260902032001 25 219 4.8 11.3 0.00 0.00 0.00 99 1017.8
20260902030501 24 252 4.8 8.0 0.00 0.00 0.00 99 1017.6
20260902030002 25 264 6.4 8.0 0.00 0.00 0.00 99 1017.8
20260902025002 25 227 6.4 9.7 0.00 0.00 0.00 97 1017.8
20260902024502 26 217 4.8 12.9 0.00 0.00 0.00 96 1017.7
20260902024001 26 204 9.7 17.7 0.00 0.00 0.00 95 1017.9
20260902023502 26 219 8.0 14.5 0.00 0.00 0.00 96 1017.7
20260902023001 26 222 4.8 12.9 0.00 0.00 0.00 97 1017.7
20260902022502 25 217 8.0 11.3 0.00 0.00 0.00 98 1017.6
20260902022002 25 243 4.8 6.4 0.00 0.00 0.00 99 1017.8
20260902021501 25 265 4.8 6.4 0.00 0.00 0.00 99 1017.8
20260902021002 25 262 3.2 6.4 0.00 0.00 0.00 99 1017.8
20260902020502 25 256 3.2 4.8 0.00 0.00 0.00 99 1017.8
20260902015502 25 263 3.2 6.4 0.00 0.00 0.00 99 1017.6
20260902014502 26 271 4.8 6.4 0.00 0.00 0.00 97 1017.7
20260902013002 27 210 6.4 8.0 0.00 0.00 0.00 94 1017.6
20260902012501 26 202 4.8 8.0 0.00 0.00 0.00 96 1017.5
20260902012002 26 245 3.2 4.8 0.00 0.00 0.00 99 1017.6
20260902011502 26 178 3.2 8.0 0.00 0.00 0.00 99 1017.5